Location: Bruch
(44.2051°N, 0.4120°E)
Time: 04:53:30
(UTC+00:00)

Cosmos 1707 Rocket - Pass Details

Date: 29 November 2020
Orbit: 605 x 631 km, 82.5° (Epoch: 24 January)

Event Time Altitude Azimuth Distance (km) Brightness Sun altitude
Rises 06:00:50 0° 355° (N) 2,881 6.8 -12.4°
Reaches altitude 10° 06:03:06 10° 1° (N) 1,970 6.0 -12.0°
Maximum altitude 06:07:22 53° 78° (ENE) 748 4.3 -11.3°
Drops below altitude 10° 06:11:35 10° 156° (SSE) 1,949 6.8 -10.6°
Sets 06:13:50 0° 161° (SSE) 2,848 7.6 -10.2°
